SCOUT B R/B, 3341

Orbit data source: Space-Track

SCOUT B R/B, 3341 is space debris in LEO originally from a launch on Thu, 08 Aug 1968 UTC launched from the Air Force Western Test Range (AFWTR). Debris objects in space refer to the collection of defunct objects orbiting the Earth. Examples of debris include non-operational satellites, rocket bodies, and fragments generated from explosions, collisions, or faulty payload assembly.

Loading next visibility...
Identifier
3341, 1968-066C
Orbit
LEO
Country
Flag of USUS
Related business
Manufacturer
UTC
Mission
Spacecraft
Bus & Motor
FW4, Unknown motor
Mass
47 kg wet, 47 kg dry
Launch date (UTC)
1968-08-08 (57 years ago)
Launch vehicle
Unknown
Launch site
Air Force Western Test Range (AFWTR)
Object type
Payload
Rocket body
Debris
Shape & HBR
Unknown
Radar Cross Section
Medium (>0.1 m² and <1 m²)

Expand to show TLE details & history
Last TLE update: 8 hours ago

TLE from 8 hours ago
0 SCOUT B R/B
1 03341U 68066C   25342.65282518  .00000340  00000-0  35950-3 0  9992
2 03341  80.6614 198.3668 1115690 237.3682 111.4933 12.26109983540162
Epoch: 2025-12-08T15:40Z
TLE epoch observation values (Epoch: 2025-12-08T15:40:04.095Z)
Latitude
-0.00006°
Longitude
-114.29905°
Altitude
1,973.581 km
Speed
6.731 km/s
True Right ascension
13h 13m 28s
True Declination
0° 00' 00"
Sunlit
Object was in daylight at epoch
Visualization orbit readout
Latitude
Unknown
Longitude
Unknown
Altitude
Unknown
Speed
Unknown
Apparent Right ascension
Unknown
Apparent Declination
Unknown
Sunlit
N/A
Visualization observer readout
Local Sidereal Time
22:12:39
Azimuth
Unknown
Elevation
Unknown
Doppler factor
Unknown
Orbital elements
Apogee altitude
2,449.478 km
Perigee altitude
677.409 km
Semi-major axis
7,941.581 km
Eccentricity
0.11157
Inclination
80.6614°
RAAN
198.3668°
Arg. of periapsis
237.3682°
True anomaly
122.73769°
Mean anomaly
111.4933°
Eccentric anomaly
117.17986°
Mean motion
3.06678 °/min
Orbital period
117.39 mins
BSTAR
0.0003595
Loading maneuver chart data...
Computing Atmospheric mass density...
Loading historical data...
Loading historical data...
Loading historical data...
Loading historical data...
Loading historical data...
Loading historical data...
Loading historical data...

Documentation

Showing up to 5 results
|